Tulsa Jones, OK

12:16 AM CDT on September 22, 2017 (GMT -0500)
Jones Jr.

Weather History for KRVS - December, 2013

Change the Weather History Date:

Thursday, December 5, 2013

  Actual Average (KTUL) Record (KTUL)
Temperature  
Mean Temperature 26 °F -  
Max Temperature 30 °F 56 °F 77 °F (1956)
Min Temperature 23 °F 35 °F 10 °F (1950)
Degree Days  
Heating Degree Days 38    
Moisture  
Dew Point 15 °F    
Average Humidity 63    
Maximum Humidity 78    
Minimum Humidity 49    
Precipitation  
Precipitation 0.15 in - - ()
Sea Level Pressure  
Sea Level Pressure 30.27 in    
Wind  
Wind Speed 11 mph (North)    
Max Wind Speed 15 mph    
Max Gust Speed 24 mph    
Visibility 8 miles    
Events Snow    
Averages and records for this station are not official NWS values.
T = Trace of Precipitation, MM = Missing Value Source: NWS Daily Summary

Daily Weather History Graph

Daily Weather History Graph

Search for Another Location

Airport or City:

Trip Planner

Search our weather history database for the weather conditions in past years. The results will help you decide how hot, cold, wet, or windy it might be!

Date:

Astronomy

Dec. 05, 2013 Rise Set
Actual Time 7:19 AM CST 5:09 PM CST
Civil Twilight 6:51 AM CST 5:37 PM CST
Nautical Twilight 6:19 AM CST 6:09 PM CST
Astronomical Twilight 5:48 AM CST 6:40 PM CST
Moon 9:43 AM CST (12/5) 8:28 PM CST (12/5)
Length of Visible Light 10h 46m
Length of Day
9h 49m
Waxing Crescent, 11% of the Moon is Illuminated
Dec 5
Waxing Crescent
Dec 9
First Quarter
Dec 17
Full
Dec 25
Last Quarter
Jan 1
New

Hourly Weather History & Observations

Time (CST) Temp. Windchill Dew Point Humidity Pressure Visibility Wind Dir Wind Speed Gust Speed Precip Events Conditions
12:53 AM 30.9 °F 21.7 °F 17.1 °F 57% 30.11 in 10.0 mi North 11.5 mph 20.7 mph N/A   Overcast
1:53 AM 30.9 °F 22.2 °F 16.0 °F 54% 30.14 in 10.0 mi North 10.4 mph 17.3 mph N/A   Overcast
2:53 AM 30.9 °F 21.2 °F 14.0 °F 50% 30.15 in 10.0 mi North 12.7 mph 20.7 mph N/A   Overcast
3:53 AM 30.0 °F 20.5 °F 15.1 °F 54% 30.18 in 10.0 mi North 11.5 mph 18.4 mph N/A   Overcast
4:53 AM 28.9 °F 18.2 °F 12.0 °F 49% 30.20 in 10.0 mi North 13.8 mph 23.0 mph N/A   Overcast
5:53 AM 27.0 °F 18.0 °F 12.0 °F 53% 30.24 in 10.0 mi North 9.2 mph 17.3 mph N/A   Clear
6:53 AM 26.1 °F 16.2 °F 12.0 °F 55% 30.24 in 10.0 mi North 10.4 mph 24.2 mph N/A   Clear
7:53 AM 26.1 °F 16.8 °F 12.0 °F 55% 30.28 in 10.0 mi North 9.2 mph - N/A   Scattered Clouds
8:53 AM 26.1 °F 16.2 °F 12.0 °F 55% 30.29 in 10.0 mi North 10.4 mph 18.4 mph N/A   Overcast
9:53 AM 26.1 °F 14.0 °F 12.0 °F 55% 30.28 in 10.0 mi North 15.0 mph 20.7 mph N/A   Overcast
10:53 AM 26.1 °F 15.6 °F 10.9 °F 53% 30.31 in 10.0 mi North 11.5 mph 18.4 mph N/A   Overcast
11:53 AM 26.1 °F 16.8 °F 10.9 °F 53% 30.33 in 10.0 mi North 9.2 mph 17.3 mph 0.00 in   Overcast
12:53 PM 27.0 °F 16.7 °F 10.9 °F 51% 30.25 in 10.0 mi North 11.5 mph 18.4 mph 0.00 in   Overcast
1:34 PM 24.8 °F 14.0 °F 15.8 °F 69% 30.24 in 1.8 mi North 11.5 mph 16.1 mph 0.01 in Snow Light Snow
1:44 PM 24.8 °F 16.9 °F 15.8 °F 69% 30.25 in 3.0 mi North 6.9 mph - 0.02 in Snow Light Snow
1:53 PM 25.0 °F 17.1 °F 15.1 °F 66% 30.28 in 7.0 mi North 6.9 mph - 0.03 in Snow Light Snow
2:53 PM 25.0 °F 16.3 °F 16.0 °F 69% 30.27 in 8.0 mi NNE 8.1 mph 17.3 mph 0.01 in   Overcast
3:53 PM 25.0 °F 17.1 °F 16.0 °F 69% 30.29 in 10.0 mi NNE 6.9 mph - 0.02 in   Overcast
4:23 PM 24.8 °F 15.3 °F 15.8 °F 69% 30.25 in 1.8 mi NNE 9.2 mph - 0.04 in Snow Light Snow
4:34 PM 24.8 °F 14.6 °F 15.8 °F 69% 30.26 in 3.0 mi North 10.4 mph 17.3 mph 0.06 in Snow Light Snow
4:53 PM 25.0 °F 15.5 °F 17.1 °F 72% 30.29 in 10.0 mi NNE 9.2 mph - 0.06 in   Overcast
5:53 PM 24.1 °F 13.7 °F 17.1 °F 75% 30.30 in 10.0 mi North 10.4 mph - 0.00 in   Overcast
6:53 PM 23.0 °F 13.9 °F 17.1 °F 78% 30.30 in 4.0 mi North 8.1 mph 17.3 mph 0.02 in Snow Light Snow
7:53 PM 23.0 °F 11.7 °F 16.0 °F 74% 30.33 in 10.0 mi North 11.5 mph 17.3 mph 0.00 in   Overcast
8:53 PM 23.0 °F 11.7 °F 16.0 °F 74% 30.32 in 10.0 mi North 11.5 mph 18.4 mph N/A   Overcast
9:53 PM 24.1 °F 13.7 °F 14.0 °F 65% 30.33 in 10.0 mi North 10.4 mph 18.4 mph 0.00 in   Overcast
10:53 PM 23.0 °F 12.4 °F 15.1 °F 72% 30.36 in 10.0 mi North 10.4 mph 17.3 mph N/A   Overcast
11:18 PM 23.0 °F 11.7 °F 15.8 °F 74% 30.31 in 8.0 mi North 11.5 mph - 0.00 in   Overcast
11:53 PM 23.0 °F 11.7 °F 16.0 °F 74% 30.35 in 10.0 mi North 11.5 mph 20.7 mph 0.01 in   Overcast